Overview Statistics Trail Chart Weather Telemetry Raw packets
 

This is the latest recevied weather packets stored in our database for station/object K4WCH. If no packets are shown the sender has not sent any weather packets the latest 10 day(s).

<< 46 47 48 49 50 51 52 >>
Time Temp. Humidity Pressure Rain* Wind** Luminosity Snow
1788349320 25° C 99% 1016.2 hPa 0 mm - 30 W/m² -
1788349037 25° C 99% 1016 hPa 0 mm - 23 W/m² -
1788348710 25° C 99% 1016 hPa 0 mm - 15 W/m² -
1788348409 25° C 99% 1016 hPa 0 mm - 13 W/m² -
1788348107 25° C 98% 1015.7 hPa 0 mm - 10 W/m² -
1788347802 25° C 98% 1015.9 hPa 0 mm - 7 W/m² -
1788347498 25° C 98% 1016 hPa 0 mm - 5 W/m² -
1788347193 24.44° C 98% 1015.9 hPa 0 mm - 3 W/m² -
1788346890 24.44° C 98% 1015.8 hPa 0 mm - 2 W/m² -
1788346588 24.44° C 98% 1015.8 hPa 0 mm - 1 W/m² -
1788346284 24.44° C 98% 1015.7 hPa 0 mm - 0 W/m² -
1788345979 24.44° C 98% 1015.7 hPa 0 mm - 0 W/m² -
1788345674 24.44° C 98% 1015.5 hPa 0 mm - 0 W/m² -
1788345374 24.44° C 98% 1015.6 hPa 0 mm - 0 W/m² -
1788345069 24.44° C 98% 1015.4 hPa 0 mm - 0 W/m² -
1788344765 24.44° C 98% 1015.4 hPa 0 mm - 0 W/m² -
1788344462 24.44° C 98% 1015.4 hPa 0 mm - 0 W/m² -
1788344157 24.44° C 98% 1015.3 hPa 0 mm - 0 W/m² -
1788343857 24.44° C 98% 1015.6 hPa 0 mm - 0 W/m² -
1788343551 24.44° C 98% 1015.5 hPa 0 mm - 0 W/m² -
1788343246 23.89° C 98% 1015.4 hPa 0 mm - 0 W/m² -
1788342945 23.89° C 98% 1015.7 hPa 0 mm - 0 W/m² -
1788342644 23.89° C 98% 1015.6 hPa 0 mm - 0 W/m² -
1788342341 24.44° C 98% 1015.6 hPa 0 mm - 0 W/m² -
1788342037 24.44° C 98% 1015.4 hPa 0 mm - 0 W/m² -

* Rain latest hour (hover to see other rain measurements)
** Current wind speed in m/s (hover to see current wind gust speed)